Regional Weather Roundup
Issued by NWS

Home | Current Version | Previous Version | Text Only | Print | Product List | Glossary Off
Versions: 1 2 3 4 5 6 7 8 9 10 11 12 13 14 15 16 17 18 19 20 21 22 23 24 25 26 27 28 29 30 31 32 33 34 35 36 37 38 39 40 41 42 43 44 45 46 47 48 49 50

000
ASUS43 KIND 291209
RWRIN

WEATHER ROUNDUP FOR INDIANA
NATIONAL WEATHER SERVICE INDIANAPOLIS IN
800 AM EDT FRI AUG 29 2014

NOTE: "FAIR" INDICATES FEW OR NO CLOUDS BELOW 12,000 FEET WITH NO
SIGNIFICANT WEATHER AND/OR OBSTRUCTIONS TO VISIBILITY.

* - STATION DOES NOT REPORT WEATHER SUCH AS PRECIPITATION OR FOG.

+ - STATION NOT QUALITY CONTROLLED BY THE NATIONAL WEATHER SERVICE.
    USE DATA WITH CAUTION...ESPECIALLY DEWPOINT AND RELATIVE
    HUMIDITY OBSERVATIONS.

INZ001>003-010>013-019-020-291300-
NORTHWEST INDIANA

CITY           SKY/WX    TMP DP  RH WIND       PRES   REMARKS
GARY /AIRPORT/ CLOUDY    72  64  78 SE12      30.01R
KNOX *+        MOCLDY    67  61  81 SE5       30.03S
LA PORTE +     CLOUDY    66  62  87 SE3       30.05R
6HR MIN TEMP:  66; 6HR MAX TEMP:  68;

MICHIGAN CITY+ CLOUDY    68  59  73 SE6       30.03R
MONTICELLO +   CLOUDY    67  64  91 SE5       30.02S
RENSSELAER +   CLOUDY    68  66  94 SE3       30.03R
VALPARAISO     CLOUDY    67  62  84 SE7       30.04R
6HR MIN TEMP:  67; 6HR MAX TEMP:  69; 6HR PCP: TRACE;


$$

LMZ046-743>745-291300-
SOUTHERN LAKE MICHIGAN

STATION/POSITION TIME  TEMP WIND        PRES
                       AIR  DIR/SP/G
                 (UTC) (F)  (DEG/KT/KT) (MB)
MICHIGAN CITY    1200   69  130/ 13/ 16   N/A

$$

INZ004-005-014>016-021>024-291300-
NORTH CENTRAL INDIANA

CITY           SKY/WX    TMP DP  RH WIND       PRES   REMARKS
ELKHART        CLOUDY    64  59  82 SE7       30.07R
GOSHEN         CLOUDY    65  59  81 SE8       30.07S
6HR MIN TEMP:  65; 6HR MAX TEMP:  68;

LOGANSPORT +   PTCLDY    64  61  88 SE6       30.06R
PERU/GRISSOM   PTCLDY    65  65 100 SE7       30.05R
6HR MIN TEMP:  64; 6HR MAX TEMP:  67;

ROCHESTER +    MOCLDY    68  63  83 SE6       30.06R
SOUTH BEND     LGT RAIN  68  59  73 SE15      30.05S
6HR MIN TEMP:  68; 6HR MAX TEMP:  71; 6HR PCP: TRACE;

WARSAW +       MOCLDY    64  59  82 SE6       30.08R

$$

INZ006>009-017-018-025>027-291300-
NORTHEAST INDIANA

CITY           SKY/WX    TMP DP  RH WIND       PRES   REMARKS
ANGOLA *+      PTCLDY    63  55  77 SE7       30.11R
AUBURN +       MOCLDY    61  55  82 E5        30.11S
FORT WAYNE     MOCLDY    63  59  87 E8        30.10R
6HR MIN TEMP:  61; 6HR MAX TEMP:  63;

HUNTINGTON +   CLEAR     62  60  94 E6        30.08S
6HR MIN TEMP:  61; 6HR MAX TEMP:  64;


$$

INZ028-029-035-036-043>045-051>053-291300-
WEST CENTRAL INDIANA

CITY           SKY/WX    TMP DP  RH WIND       PRES   REMARKS
GREENCASTLE +  MOCLDY    68  64  88 SE3       30.05R
LAFAYETTE      CLOUDY    70  63  78 SE7       30.02R
6HR MIN TEMP:  67; 6HR MAX TEMP:  70;

TERRE HAUTE    MOCLDY    72  67  84 SE6       30.02R
6HR MIN TEMP:  70; 6HR MAX TEMP:  73;


$$

INZ030>032-037>040-046>048-054>057-064-065-291300-
CENTRAL INDIANA

CITY           SKY/WX    TMP DP  RH WIND       PRES   REMARKS
ANDERSON       CLEAR     68  59  73 SE12      30.09
CP ATTERBURY + PTCLDY    66  63  88 CALM      30.07S
FRANKFORT +    CLOUDY    67  67 100 SE8       30.05S
INDIANAPOLIS   CLOUDY    69  62  78 SE8       30.05R
6HR MIN TEMP:  68; 6HR MAX TEMP:  71;

-EAGLE CREEK   PTCLDY    69  61  75 SE8       30.05R
6HR MIN TEMP:  68; 6HR MAX TEMP:  73;

KOKOMO *+      PTCLDY    64  61  88 SE6       30.06R
MARION +       CLEAR     64  59  85 SE7       30.08R
MT COMFORT *+  PTCLDY    66  66 100 SE6       30.07S
SHELBYVILLE    PTCLDY    68  62  81 E7        30.06S
6HR MIN TEMP:  67; 6HR MAX TEMP:  71;

ZIONSVILLE +   PTCLDY    68  61  78 SE6       30.07R
6HR MIN TEMP:  67; 6HR MAX TEMP:  70;


$$

INZ033-034-041-042-049-050-058-059-291300-
EAST CENTRAL INDIANA

CITY           SKY/WX    TMP DP  RH WIND       PRES   REMARKS
MUNCIE         PTCLDY    68  59  73 S9        30.08R
6HR MIN TEMP:  65; 6HR MAX TEMP:  68;


$$

INZ060-061-067>069-081>083-085>088-291300-
SOUTHWEST INDIANA

CITY           SKY/WX    TMP DP  RH WIND       PRES   REMARKS
EVANSVILLE     CLEAR     74  71  91 E3        30.01R FOG
6HR MIN TEMP:  73; 6HR MAX TEMP:  74;

WASHINGTON +   MOCLDY    73  72  97 SE3       30.01R
6HR MIN TEMP:  73; 6HR MAX TEMP:  75;


$$

INZ062-063-066-070>080-084-089>092-291300-
SOUTH CENTRAL AND SOUTHEAST INDIANA

CITY           SKY/WX    TMP DP  RH WIND       PRES   REMARKS
BEDFORD +      CLOUDY    72  64  78 E6        30.05R
BLOOMINGTON    CLOUDY    71  65  81 SE7       30.05R
6HR MIN TEMP:  71; 6HR MAX TEMP:  73;

NORTH VERNON + PTCLDY    68  66  94 E6        30.08R

$$




USA.gov is the U.S. government's official web portal to all federal, state and local government web resources and services.